Location: Unspecified
(0.0000°N, 0.0000°E)
Time: 07:28:55
(UTC+00:00)

Courier 1B Rocket - All Passes

Search period start: 26 April 2018 00:00
Search period end: 06 May 2018 00:00
Orbit: 920 x 1202 km, 28.2° (Epoch: 25 April)

Date Brightness Start Highest point End Pass type
(mag) Time Alt. Az. Time Alt. Az. Time Alt. Az.
26 Apr - 02:09:54 10° SSW 02:15:44 24° SSE 02:21:44 10° ESE visible
26 Apr - 04:02:06 10° SW 04:09:47 75° SSE 04:17:38 10° ENE visible
26 Apr - 05:56:44 10° W 06:03:46 36° NNW 06:10:45 10° NE daylight
26 Apr - 07:55:40 10° NW 07:58:27 12° NNW 08:01:11 10° N daylight
26 Apr - 13:41:47 10° NNW 13:45:46 16° NNE 13:49:38 10° ENE daylight
26 Apr - 15:33:20 10° NW 15:39:39 57° NNE 15:45:46 10° ESE daylight
26 Apr - 17:27:21 10° W 17:33:02 36° SSW 17:38:46 10° SE daylight
26 Apr - 19:26:16 10° SSW 19:27:09 10° SSW 19:28:03 10° SSW visible
27 Apr - 01:09:54 10° SSW 01:14:14 16° SSE 01:18:42 10° ESE night (unlit)
27 Apr - 03:01:11 10° SW 03:08:28 51° SSE 03:16:00 10° ENE visible
27 Apr - 04:54:52 10° WSW 05:02:22 52° NNW 05:09:56 10° NE visible
27 Apr - 06:51:52 10° WNW 06:56:46 18° NNW 07:01:36 10° NNE daylight
27 Apr - 12:42:10 10° N 12:44:18 11° NNE 12:46:25 10° NE daylight
27 Apr - 14:32:34 10° NW 14:38:35 37° NNE 14:44:21 10° E daylight
27 Apr - 16:25:48 10° WNW 16:32:02 57° SSW 16:38:09 10° SE daylight
27 Apr - 18:22:13 10° WSW 18:25:46 15° SSW 18:29:22 10° S visible
28 Apr - 00:11:03 10° S 00:12:39 11° SSE 00:14:15 10° SE night (unlit)
28 Apr - 02:00:33 10° SW 02:07:07 35° SSE 02:14:00 10° E visible
28 Apr - 03:53:24 10° WSW 04:01:01 75° NNW 04:08:52 10° NE visible
28 Apr - 05:49:02 10° WNW 05:55:11 25° NNW 06:01:19 10° NNE daylight
28 Apr - 13:31:58 10° NNW 13:37:24 25° NNE 13:42:36 10° E daylight
28 Apr - 15:24:30 10° WNW 15:31:03 89° SW 15:37:20 10° ESE daylight
28 Apr - 17:19:41 10° WSW 17:24:33 23° SSW 17:29:25 10° SSE daylight
29 Apr - 01:00:14 10° SSW 01:05:46 24° SSE 01:11:33 10° ESE night (unlit)
29 Apr - 02:52:16 10° SW 02:59:42 76° SSE 03:07:30 10° ENE visible
29 Apr - 04:46:48 10° W 04:53:41 35° NNW 05:00:41 10° NE visible
29 Apr - 06:45:34 10° NW 06:48:28 12° NNW 06:51:21 10° N daylight
29 Apr - 12:31:34 10° NNW 12:36:04 18° NNE 12:40:23 10° ENE daylight
29 Apr - 14:23:26 10° NW 14:30:02 60° NNE 14:36:17 10° ESE daylight
29 Apr - 16:17:39 10° W 16:23:28 36° SSW 16:29:08 10° SE daylight
30 Apr - 00:00:22 10° S 00:04:21 16° SSE 00:08:28 10° ESE night (unlit)
30 Apr - 01:51:26 10° SW 01:58:26 52° SSE 02:05:51 10° ENE visible
30 Apr - 03:45:01 10° WSW 03:52:16 51° NNW 03:59:48 10° NE visible
30 Apr - 05:41:55 10° WNW 05:46:43 17° NNW 05:51:34 10° NNE daylight
30 Apr - 11:31:32 10° N 11:34:33 13° NNE 11:37:29 10° NE daylight
30 Apr - 13:22:32 10° NW 13:28:55 40° NNE 13:34:56 10° E daylight
30 Apr - 15:15:59 10° WNW 15:22:26 56° SSW 15:28:36 10° SE daylight
30 Apr - 17:12:41 10° WSW 17:16:10 15° SSW 17:19:38 10° S daylight
01 May - 00:50:54 10° SW 00:57:10 34° SSE 01:03:50 10° E night (unlit)
01 May - 02:43:38 10° WSW 02:50:57 74° NNW 02:58:41 10° NE visible
01 May - 04:39:11 10° WNW 04:45:07 24° NNW 04:51:11 10° NNE visible
01 May - 12:21:47 10° NNW 12:27:41 27° NNE 12:33:15 10° E daylight
01 May - 14:14:34 10° WNW 14:21:25 86° SSW 14:27:51 10° ESE daylight
01 May - 16:09:58 10° WSW 16:14:58 23° SSW 16:19:49 10° SSE daylight
01 May - 23:50:40 10° SSW 23:55:54 23° SSE 00:01:23 10° ESE night (unlit)
02 May - 01:42:35 10° SW 01:49:41 77° SSE 01:57:19 10° ENE visible
02 May - 03:37:02 10° W 03:43:38 34° NNW 03:50:30 10° NE visible
02 May - 05:35:44 10° NW 05:38:28 12° NNW 05:41:12 10° N visible
02 May - 11:21:14 10° NNW 11:26:16 20° NNE 11:31:05 10° ENE daylight
02 May - 13:13:23 10° NW 13:20:21 63° NNE 13:26:50 10° ESE daylight
02 May - 15:07:49 10° W 15:13:51 35° SSW 15:19:36 10° SE daylight
02 May - 22:50:55 10° S 22:54:33 15° SSE 22:58:18 10° ESE night (unlit)
03 May - 00:41:49 10° SW 00:48:30 52° SSE 00:55:39 10° ENE night (unlit)
03 May - 02:35:19 10° WSW 02:42:14 49° NNW 02:49:36 10° NE visible
03 May - 04:32:10 10° WNW 04:36:42 17° NNW 04:41:21 10° NNE visible
03 May - 10:20:59 10° N 10:24:42 14° NNE 10:28:19 10° NE daylight
03 May - 12:12:22 10° NW 12:19:10 42° NNE 12:25:30 10° E daylight
03 May - 14:06:01 10° WNW 14:12:47 55° SSW 14:19:07 10° SE daylight
03 May - 16:02:56 10° WSW 16:06:33 15° SSW 16:10:05 10° S daylight
03 May - 23:41:21 10° SSW 23:47:20 34° SSE 23:53:41 10° E night (unlit)
04 May - 01:34:01 10° WSW 01:40:59 71° NNW 01:48:28 10° NE visible
04 May - 03:29:30 10° WNW 03:35:07 23° NNW 03:40:56 10° NNE visible
04 May - 09:21:49 10° N 09:22:57 10° NNE 09:24:06 10° NNE daylight
04 May - 11:11:32 10° NNW 11:17:51 29° NNE 11:23:48 10° E daylight
04 May - 13:04:30 10° WNW 13:11:42 84° SSW 13:18:22 10° ESE daylight
04 May - 15:00:05 10° W 15:05:18 23° SSW 15:10:19 10° SSE daylight
04 May - 22:41:11 10° SSW 22:46:08 22° SSE 22:51:17 10° ESE night (unlit)
05 May - 00:33:01 10° SW 00:39:47 79° SSE 00:47:07 10° ENE night (unlit)
05 May - 02:27:25 10° W 02:33:39 32° NNW 02:40:15 10° NE visible
05 May - 04:26:16 10° NW 04:28:29 11° NNW 04:30:44 10° N visible
05 May - 10:10:54 10° NNW 10:16:23 21° NNE 10:21:40 10° ENE daylight
05 May - 12:03:13 10° NW 12:10:32 66° NNE 12:17:21 10° ESE daylight
05 May - 13:57:48 10° W 14:04:08 36° SSW 14:10:07 10° SE daylight
05 May - 21:41:31 10° S 21:44:51 14° SSE 21:48:14 10° ESE night (unlit)
05 May - 23:32:18 10° SW 23:38:41 52° SSE 23:45:31 10° ENE night (unlit)
